Weather History for Taylorville, IL

Change the Weather History Date:

Friday, May 17, 2013

  Actual Average (KSPI) Record (KSPI)
Temperature  
Mean Temperature 68 °F 64 °F  
Max Temperature 78 °F 75 °F 95 °F (1962)
Min Temperature 57 °F 53 °F 35 °F (1973)
Degree Days  
Heating Degree Days 0 4  
Month to date heating degree days 90  
Since 1 July heating degree days 5435  
Cooling Degree Days 2 3  
Month to date cooling degree days 31  
Year to date cooling degree days 51  
Growing Degree Days 18 (Base 50)    
Moisture  
Dew Point 61 °F    
Average Humidity 79    
Maximum Humidity 100    
Minimum Humidity 53    
Precipitation  
Precipitation 0.00 in 0.14 in 2.48 in (1943)
Month to date precipitation 2.28  
Year to date precipitation 12.05  
Snow  
Snow 0.00 in 0.00 in 0.00 in ()
Month to date snowfall 0.0  
Since 1 July snowfall 20.9  
Snow Depth -    
Sea Level Pressure  
Sea Level Pressure 29.96 in    
Wind  
Wind Speed 4 mph (SE)    
Max Wind Speed 13 mph    
Max Gust Speed 16 mph    
Visibility 9 miles    
Events      
T = Trace of Precipitation, MM = Missing Value Source: NWS Daily Summary

Daily Weather History Graph

Daily Weather History Graph

Search for Another Location

Airport:

Trip Planner

Search our weather history database for the weather conditions in past years. The results will help you decide how hot, cold, wet, or windy it might be!

Date:

Astronomy

May. 17, 2013 Rise Set
Actual Time 5:41 AM CDT 8:06 PM CDT
Civil Twilight 5:10 AM CDT 8:37 PM CDT
Nautical Twilight 4:32 AM CDT 9:15 PM CDT
Astronomical Twilight 3:51 AM CDT 9:57 PM CDT
Moon 12:12 PM CDT (5/17) 12:59 AM CDT (5/17)
Length of Visible Light 15h 26m
Length of Day
14h 25m
Waxing Crescent, 45% of the Moon is Illuminated
May 17
Waxing Crescent
May 17
First Quarter
May 24
Full
May 31
Last Quarter
Jun 8
New

Hourly Weather History & Observations

Time (CDT) Temp. Dew Point Humidity Pressure Visibility Wind Dir Wind Speed Gust Speed Precip Events Conditions
12:15 AM 60.8 °F 57.2 °F 88% 29.96 in 10.0 mi Calm Calm - N/A   Clear
12:35 AM 60.8 °F 57.2 °F 88% 29.96 in 10.0 mi Calm Calm - N/A   Clear
12:55 AM 60.8 °F 57.2 °F 88% 29.95 in 10.0 mi Calm Calm - N/A   Clear
1:15 AM 60.8 °F 57.2 °F 88% 29.95 in 10.0 mi Calm Calm - N/A   Clear
1:35 AM 60.8 °F 57.2 °F 88% 29.95 in 10.0 mi Calm Calm - N/A   Clear
1:55 AM 59.0 °F 57.2 °F 94% 29.94 in 7.0 mi SE 3.5 mph - N/A   Clear
2:15 AM 60.8 °F 59.0 °F 94% 29.94 in 10.0 mi ESE 5.8 mph - N/A   Scattered Clouds
2:35 AM 60.8 °F 57.2 °F 88% 29.94 in 10.0 mi ESE 3.5 mph - N/A   Scattered Clouds
2:55 AM 60.8 °F 57.2 °F 88% 29.94 in 10.0 mi Calm Calm - N/A   Clear
3:15 AM 59.0 °F 57.2 °F 94% 29.94 in 10.0 mi Calm Calm - N/A   Clear
3:35 AM 60.8 °F 57.2 °F 88% 29.94 in 10.0 mi Calm Calm - N/A   Scattered Clouds
3:55 AM 60.8 °F 57.2 °F 88% 29.94 in 10.0 mi East 3.5 mph - N/A   Scattered Clouds
4:15 AM 59.0 °F 57.2 °F 94% 29.94 in 10.0 mi SE 3.5 mph - N/A   Clear
4:35 AM 57.2 °F 55.4 °F 94% 29.95 in 7.0 mi Calm Calm - N/A   Clear
4:55 AM 59.0 °F 57.2 °F 94% 29.95 in 10.0 mi Calm Calm - N/A   Scattered Clouds
5:15 AM 59.0 °F 57.2 °F 94% 29.95 in 10.0 mi Calm Calm - N/A   Scattered Clouds
5:35 AM 59.0 °F 57.2 °F 94% 29.95 in 10.0 mi East 3.5 mph - N/A   Clear
5:55 AM 57.2 °F 57.2 °F 100% 29.95 in 7.0 mi Calm Calm - N/A   Clear
6:15 AM 59.0 °F 57.2 °F 94% 29.96 in 5.0 mi Calm Calm - N/A   Clear
6:35 AM 60.8 °F 57.2 °F 88% 29.97 in 4.0 mi Calm Calm - N/A   Clear
6:55 AM 60.8 °F 60.8 °F 100% 29.97 in 4.0 mi Calm Calm - N/A   Clear
7:15 AM 62.6 °F 62.6 °F 100% 29.97 in 3.0 mi East 4.6 mph - N/A   Clear
7:35 AM 64.4 °F 62.6 °F 94% 29.97 in 3.0 mi ESE 4.6 mph - N/A   Scattered Clouds
7:55 AM 64.4 °F 62.6 °F 94% 29.97 in 4.0 mi SE 4.6 mph - N/A   Scattered Clouds
8:15 AM 66.2 °F 62.6 °F 88% 29.97 in 5.0 mi SE 6.9 mph - N/A   Clear
8:35 AM 66.2 °F 62.6 °F 88% 29.98 in 7.0 mi SE 5.8 mph - N/A   Clear
8:55 AM 69.8 °F 62.6 °F 78% 29.98 in 7.0 mi SSE 4.6 mph - N/A   Clear
9:15 AM 69.8 °F 62.6 °F 78% 29.98 in 7.0 mi SE 8.1 mph - N/A   Clear
9:35 AM 69.8 °F 62.6 °F 78% 29.98 in 10.0 mi SE 6.9 mph - N/A   Scattered Clouds
9:55 AM 69.8 °F 62.6 °F 78% 29.98 in 10.0 mi SE 6.9 mph - N/A   Scattered Clouds
10:15 AM 69.8 °F 62.6 °F 78% 29.98 in 10.0 mi SE 5.8 mph - N/A   Scattered Clouds
10:35 AM 69.8 °F 62.6 °F 78% 29.99 in 10.0 mi SSE 4.6 mph - N/A   Mostly Cloudy
10:55 AM 69.8 °F 60.8 °F 73% 29.99 in 10.0 mi SSE 5.8 mph - N/A   Mostly Cloudy
11:15 AM 69.8 °F 62.6 °F 78% 29.98 in 10.0 mi SSE 6.9 mph - N/A   Mostly Cloudy
11:35 AM 69.8 °F 62.6 °F 78% 29.98 in 7.0 mi SE 5.8 mph - N/A   Mostly Cloudy
11:55 AM 71.6 °F 60.8 °F 69% 29.98 in 10.0 mi SE 8.1 mph - N/A   Scattered Clouds
12:15 PM 73.4 °F 60.8 °F 65% 29.98 in 10.0 mi SE 9.2 mph - N/A   Scattered Clouds
12:35 PM 75.2 °F 57.2 °F 53% 29.98 in 10.0 mi SE 10.4 mph - N/A   Scattered Clouds
12:55 PM 75.2 °F 59.0 °F 57% 29.97 in 10.0 mi SSE 8.1 mph - N/A   Clear
1:35 PM 78.8 °F 60.8 °F 54% 29.96 in 10.0 mi SSE 11.5 mph 16.1 mph N/A   Clear
1:55 PM 77.0 °F 60.8 °F 57% 29.96 in 10.0 mi SE 10.4 mph - N/A   Unknown
2:15 PM 77.0 °F 60.8 °F 57% 29.96 in 10.0 mi SSE 12.7 mph 16.1 mph N/A   Scattered Clouds
2:35 PM 75.2 °F 60.8 °F 61% 29.96 in 10.0 mi SSE 12.7 mph - N/A   Scattered Clouds
2:55 PM 75.2 °F 60.8 °F 61% 29.95 in 10.0 mi SSE 11.5 mph - N/A   Clear
3:15 PM 75.2 °F 62.6 °F 65% 29.95 in 10.0 mi SSE 10.4 mph - N/A   Clear
3:35 PM 75.2 °F 62.6 °F 65% 29.94 in 10.0 mi SSE 9.2 mph - N/A   Scattered Clouds
3:55 PM 77.0 °F 62.6 °F 61% 29.93 in 10.0 mi SE 10.4 mph - N/A   Scattered Clouds
4:15 PM 77.0 °F 62.6 °F 61% 29.93 in 10.0 mi SE 10.4 mph - N/A   Clear
4:35 PM 78.8 °F 60.8 °F 54% 29.93 in 10.0 mi SE 11.5 mph - N/A   Scattered Clouds
4:55 PM 77.0 °F 60.8 °F 57% 29.93 in 5.0 mi SE 10.4 mph - N/A   Haze
5:15 PM 77.0 °F 62.6 °F 61% 29.92 in 10.0 mi South 11.5 mph - N/A   Clear
5:35 PM 75.2 °F 62.6 °F 65% 29.93 in 7.0 mi SSE 6.9 mph - N/A   Clear
5:55 PM 73.4 °F 62.6 °F 69% 29.93 in 10.0 mi South 8.1 mph - N/A   Clear
6:15 PM 75.2 °F 64.4 °F 69% 29.93 in 10.0 mi South 9.2 mph - N/A   Scattered Clouds
6:35 PM 73.4 °F 62.6 °F 69% 29.93 in 10.0 mi South 9.2 mph - N/A   Scattered Clouds
6:55 PM 71.6 °F 62.6 °F 73% 29.94 in 10.0 mi SSE 9.2 mph - N/A   Scattered Clouds
7:15 PM 71.6 °F 62.6 °F 73% 29.94 in 10.0 mi SSE 9.2 mph - N/A   Mostly Cloudy
7:35 PM 69.8 °F 62.6 °F 78% 29.95 in 10.0 mi SSE 11.5 mph - N/A   Scattered Clouds
7:55 PM 69.8 °F 60.8 °F 73% 29.95 in 10.0 mi SE 4.6 mph - N/A   Scattered Clouds
8:15 PM 69.8 °F 62.6 °F 78% 29.95 in 10.0 mi SE 5.8 mph - N/A   Clear
8:35 PM 68.0 °F 62.6 °F 83% 29.96 in 10.0 mi SE 3.5 mph - N/A   Clear
8:55 PM 68.0 °F 62.6 °F 83% 29.96 in 10.0 mi ESE 4.6 mph - N/A   Mostly Cloudy
9:15 PM 69.8 °F 62.6 °F 78% 29.97 in 10.0 mi ESE 6.9 mph - N/A   Overcast
9:35 PM 68.0 °F 62.6 °F 83% 29.98 in 10.0 mi ESE 6.9 mph - N/A   Mostly Cloudy
9:55 PM 68.0 °F 62.6 °F 83% 29.98 in 10.0 mi SE 6.9 mph - N/A   Scattered Clouds
10:15 PM 68.0 °F 62.6 °F 83% 29.98 in 10.0 mi SE 5.8 mph - N/A   Mostly Cloudy
10:35 PM 66.2 °F 62.6 °F 88% 29.98 in 10.0 mi SE 8.1 mph - N/A   Mostly Cloudy
10:55 PM 66.2 °F 62.6 °F 88% 29.98 in 10.0 mi SE 6.9 mph - N/A   Mostly Cloudy
11:15 PM 64.4 °F 62.6 °F 94% 29.98 in 10.0 mi SE 8.1 mph - N/A   Scattered Clouds
11:35 PM 64.4 °F 62.6 °F 94% 29.98 in 10.0 mi SE 4.6 mph - N/A   Clear
11:55 PM 64.4 °F 62.6 °F 94% 29.98 in 7.0 mi ESE 5.8 mph - N/A   Clear